Time,TemperatureF,DewpointF,PressureIn,WindDirection,WindDirectionDegrees,WindSpeedMPH,WindSpeedGustMPH,Humidity,HourlyPrecipIn,Conditions,Clouds,dailyrainin,SoftwareType,DateUTC
2013-06-06 00:02:00,55.6,54.2,30.03,East,91,0.0,0.0,95,0.00,,,0.00,Wunderground v.1.15,2013-06-06 04:02:00,
2013-06-06 00:03:00,55.7,54.6,30.03,East,91,0.0,0.0,96,0.00,,,0.00,Wunderground v.1.15,2013-06-06 04:03:00,
2013-06-06 00:08:00,55.7,54.6,30.03,East,91,0.0,0.0,96,0.00,,,0.00,Wunderground v.1.15,2013-06-06 04:08:00,
2013-06-06 00:13:00,55.7,54.6,30.03,East,91,0.0,0.0,96,0.00,,,0.00,Wunderground v.1.15,2013-06-06 04:13:00,
2013-06-06 00:14:00,55.7,54.6,30.03,East,91,0.0,0.0,96,0.00,,,0.00,Wunderground v.1.15,2013-06-06 04:14:00,
2013-06-06 00:19:00,55.5,54.1,30.03,East,91,0.0,0.0,95,0.00,,,0.00,Wunderground v.1.15,2013-06-06 04:19:00,
2013-06-06 00:24:00,55.2,53.8,30.03,East,92,0.0,0.0,95,0.00,,,0.00,Wunderground v.1.15,2013-06-06 04:24:00,
2013-06-06 00:30:00,55.3,54.2,30.03,East,91,0.0,0.0,96,0.00,,,0.00,Wunderground v.1.15,2013-06-06 04:30:00,
2013-06-06 00:35:00,55.1,54.0,30.02,East,92,0.0,0.0,96,0.00,,,0.00,Wunderground v.1.15,2013-06-06 04:35:00,
2013-06-06 00:41:00,54.9,53.8,30.02,East,91,0.0,0.0,96,0.00,,,0.00,Wunderground v.1.15,2013-06-06 04:41:00,
2013-06-06 00:46:00,54.8,53.7,30.02,East,91,0.0,0.0,96,0.00,,,0.00,Wunderground v.1.15,2013-06-06 04:46:00,
2013-06-06 00:51:00,54.7,53.6,30.02,East,91,0.0,0.0,96,0.00,,,0.00,Wunderground v.1.15,2013-06-06 04:51:00,
2013-06-06 00:56:00,54.5,53.4,30.02,East,92,0.0,0.0,96,0.00,,,0.00,Wunderground v.1.15,2013-06-06 04:56:00,
2013-06-06 01:01:00,54.4,53.3,30.02,East,91,0.0,0.0,96,0.00,,,0.00,Wunderground v.1.15,2013-06-06 05:01:00,
2013-06-06 01:06:00,54.3,53.2,30.02,East,91,0.0,0.0,96,0.00,,,0.00,Wunderground v.1.15,2013-06-06 05:06:00,
2013-06-06 01:12:00,54.3,53.5,30.02,East,91,0.0,0.0,97,0.00,,,0.00,Wunderground v.1.15,2013-06-06 05:12:00,
2013-06-06 01:17:00,54.2,53.4,30.02,East,92,0.0,0.0,97,0.00,,,0.00,Wunderground v.1.15,2013-06-06 05:17:00,
2013-06-06 01:22:00,54.1,53.3,30.02,East,92,0.0,0.0,97,0.00,,,0.00,Wunderground v.1.15,2013-06-06 05:22:00,
2013-06-06 01:27:00,54.2,53.4,30.02,East,92,0.0,0.0,97,0.00,,,0.00,Wunderground v.1.15,2013-06-06 05:27:00,
2013-06-06 01:32:00,54.2,53.4,30.02,East,91,0.0,0.0,97,0.00,,,0.00,Wunderground v.1.15,2013-06-06 05:32:00,
2013-06-06 01:37:00,54.2,53.4,30.01,East,91,0.0,0.0,97,0.00,,,0.00,Wunderground v.1.15,2013-06-06 05:37:00,
2013-06-06 01:42:00,54.1,53.3,30.01,East,91,0.0,0.0,97,0.00,,,0.00,Wunderground v.1.15,2013-06-06 05:42:00,
2013-06-06 01:48:00,54.2,53.6,30.02,East,91,0.0,0.0,98,0.00,,,0.00,Wunderground v.1.15,2013-06-06 05:48:00,
2013-06-06 01:53:00,54.3,53.7,30.02,East,91,0.0,0.0,98,0.00,,,0.00,Wunderground v.1.15,2013-06-06 05:53:00,
2013-06-06 01:59:00,54.4,53.8,30.02,East,91,0.0,0.0,98,0.00,,,0.00,Wunderground v.1.15,2013-06-06 05:59:00,
2013-06-06 02:04:00,54.2,53.6,30.02,East,91,0.0,0.0,98,0.00,,,0.00,Wunderground v.1.15,2013-06-06 06:04:00,
2013-06-06 02:09:00,54.4,53.8,30.03,East,90,0.0,0.0,98,0.00,,,0.00,Wunderground v.1.15,2013-06-06 06:09:00,
2013-06-06 02:14:00,54.9,54.3,30.03,East,90,0.0,0.0,98,0.00,,,0.00,Wunderground v.1.15,2013-06-06 06:14:00,
2013-06-06 02:19:00,55.2,54.6,30.02,East,91,0.0,0.0,98,0.00,,,0.00,Wunderground v.1.15,2013-06-06 06:19:00,
2013-06-06 02:24:00,55.3,54.7,30.03,East,90,0.0,0.0,98,0.00,,,0.00,Wunderground v.1.15,2013-06-06 06:24:00,
2013-06-06 02:29:00,55.3,54.7,30.03,East,91,0.0,0.0,98,0.00,,,0.00,Wunderground v.1.15,2013-06-06 06:29:00,
2013-06-06 02:34:00,55.6,55.0,30.03,East,91,0.0,0.0,98,0.00,,,0.00,Wunderground v.1.15,2013-06-06 06:34:00,
2013-06-06 02:39:00,55.8,55.2,30.03,East,91,0.0,0.0,98,0.00,,,0.00,Wunderground v.1.15,2013-06-06 06:39:00,
2013-06-06 02:44:00,55.9,55.3,30.03,North,8,0.0,0.0,98,0.00,,,0.00,Wunderground v.1.15,2013-06-06 06:44:00,
2013-06-06 02:49:00,56.1,55.5,30.03,NE,39,0.0,0.0,98,0.00,,,0.00,Wunderground v.1.15,2013-06-06 06:49:00,
2013-06-06 02:54:00,56.1,55.5,30.03,NE,39,0.0,0.0,98,0.00,,,0.00,Wunderground v.1.15,2013-06-06 06:54:00,
2013-06-06 02:59:00,56.2,55.6,30.02,NE,39,0.0,0.0,98,0.00,,,0.00,Wunderground v.1.15,2013-06-06 06:59:00,
2013-06-06 03:04:00,56.4,55.8,30.02,NE,39,0.0,0.0,98,0.00,,,0.00,Wunderground v.1.15,2013-06-06 07:04:00,
2013-06-06 03:09:00,56.4,55.8,30.02,NE,39,0.0,0.0,98,0.00,,,0.00,Wunderground v.1.15,2013-06-06 07:09:00,
2013-06-06 03:14:00,56.4,55.8,30.02,NE,39,0.0,0.0,98,0.00,,,0.00,Wunderground v.1.15,2013-06-06 07:14:00,
2013-06-06 03:19:00,56.5,55.9,30.02,NE,39,0.0,0.0,98,0.00,,,0.00,Wunderground v.1.15,2013-06-06 07:19:00,
2013-06-06 03:24:00,56.5,55.9,30.01,NE,39,0.0,0.0,98,0.00,,,0.00,Wunderground v.1.15,2013-06-06 07:24:00,
2013-06-06 03:29:00,56.4,55.8,30.02,NE,39,0.0,0.0,98,0.00,,,0.00,Wunderground v.1.15,2013-06-06 07:29:00,
2013-06-06 03:34:00,56.5,55.9,30.02,NE,39,0.0,0.0,98,0.00,,,0.00,Wunderground v.1.15,2013-06-06 07:34:00,
2013-06-06 03:39:00,56.5,55.9,30.02,NE,39,0.0,0.0,98,0.00,,,0.00,Wunderground v.1.15,2013-06-06 07:39:00,
2013-06-06 03:44:00,56.4,55.8,30.02,NE,39,0.0,0.0,98,0.00,,,0.00,Wunderground v.1.15,2013-06-06 07:44:00,
2013-06-06 03:49:00,56.3,55.7,30.02,NE,39,0.0,0.0,98,0.00,,,0.00,Wunderground v.1.15,2013-06-06 07:49:00,
2013-06-06 03:54:00,56.0,55.4,30.02,NE,39,0.0,0.0,98,0.00,,,0.00,Wunderground v.1.15,2013-06-06 07:54:00,
2013-06-06 03:59:00,55.8,55.2,30.02,NE,39,0.0,0.0,98,0.00,,,0.00,Wunderground v.1.15,2013-06-06 07:59:00,
2013-06-06 04:04:00,55.5,54.9,30.02,NE,39,0.0,0.0,98,0.00,,,0.00,Wunderground v.1.15,2013-06-06 08:04:00,
2013-06-06 04:09:00,55.4,54.8,30.02,NE,39,0.0,0.0,98,0.00,,,0.00,Wunderground v.1.15,2013-06-06 08:09:00,
2013-06-06 04:15:00,55.5,54.9,30.02,NE,39,0.0,0.0,98,0.00,,,0.00,Wunderground v.1.15,2013-06-06 08:15:00,
2013-06-06 04:20:00,55.6,55.0,30.02,NE,39,0.0,0.0,98,0.00,,,0.00,Wunderground v.1.15,2013-06-06 08:20:00,
2013-06-06 04:25:00,55.6,55.0,30.02,NE,39,0.0,0.0,98,0.00,,,0.00,Wunderground v.1.15,2013-06-06 08:25:00,
2013-06-06 04:30:00,55.6,55.0,30.02,NE,39,0.0,0.0,98,0.00,,,0.00,Wunderground v.1.15,2013-06-06 08:30:00,
2013-06-06 04:35:00,55.8,55.5,30.02,NE,39,0.0,0.0,99,0.00,,,0.00,Wunderground v.1.15,2013-06-06 08:35:00,
2013-06-06 04:40:00,55.9,55.6,30.02,NE,39,0.0,0.0,99,0.00,,,0.00,Wunderground v.1.15,2013-06-06 08:40:00,
2013-06-06 04:45:00,56.1,55.8,30.02,NE,39,0.0,0.0,99,0.00,,,0.00,Wunderground v.1.15,2013-06-06 08:45:00,
2013-06-06 04:50:00,56.0,55.7,30.02,NE,39,0.0,0.0,99,0.00,,,0.00,Wunderground v.1.15,2013-06-06 08:50:00,
2013-06-06 04:55:00,56.2,55.9,30.02,NE,39,0.0,0.0,99,0.00,,,0.00,Wunderground v.1.15,2013-06-06 08:55:00,
2013-06-06 05:00:00,56.1,55.8,30.03,NE,39,0.0,0.0,99,0.00,,,0.00,Wunderground v.1.15,2013-06-06 09:00:00,
2013-06-06 05:05:00,56.1,55.8,30.02,NE,39,0.0,0.0,99,0.00,,,0.00,Wunderground v.1.15,2013-06-06 09:05:00,
2013-06-06 05:10:00,56.0,55.7,30.02,NE,39,0.0,0.0,99,0.00,,,0.00,Wunderground v.1.15,2013-06-06 09:10:00,
2013-06-06 05:15:00,56.0,55.7,30.01,NE,39,0.0,0.0,99,0.00,,,0.00,Wunderground v.1.15,2013-06-06 09:15:00,
2013-06-06 05:20:00,56.0,55.7,30.01,NE,39,0.0,0.0,99,0.00,,,0.00,Wunderground v.1.15,2013-06-06 09:20:00,
2013-06-06 05:25:00,55.9,55.6,30.02,NE,39,0.0,0.0,99,0.00,,,0.00,Wunderground v.1.15,2013-06-06 09:25:00,
2013-06-06 05:30:00,56.0,55.7,30.02,NE,39,0.0,0.0,99,0.00,,,0.00,Wunderground v.1.15,2013-06-06 09:30:00,
2013-06-06 05:35:00,56.0,55.7,30.02,NE,39,0.0,0.0,99,0.00,,,0.00,Wunderground v.1.15,2013-06-06 09:35:00,
2013-06-06 05:40:00,56.1,55.8,30.01,NE,39,0.0,0.0,99,0.00,,,0.00,Wunderground v.1.15,2013-06-06 09:40:00,
2013-06-06 05:45:00,56.1,55.8,30.01,NE,39,0.0,0.0,99,0.00,,,0.00,Wunderground v.1.15,2013-06-06 09:45:00,
2013-06-06 05:50:00,56.3,56.0,30.01,NE,39,1.0,1.0,99,0.00,,,0.00,Wunderground v.1.15,2013-06-06 09:50:00,
2013-06-06 05:55:00,56.6,56.3,30.00,East,101,0.0,1.0,99,0.00,,,0.00,Wunderground v.1.15,2013-06-06 09:55:00,
2013-06-06 06:00:00,56.7,56.4,30.01,East,101,0.0,1.0,99,0.00,,,0.00,Wunderground v.1.15,2013-06-06 10:00:00,
2013-06-06 06:05:00,56.8,56.5,30.01,East,101,0.0,0.0,99,0.00,,,0.00,Wunderground v.1.15,2013-06-06 10:05:00,
2013-06-06 06:10:00,56.9,56.6,30.02,ESE,102,0.0,0.0,99,0.00,,,0.00,Wunderground v.1.15,2013-06-06 10:10:00,
2013-06-06 06:16:00,56.9,56.6,30.01,East,101,0.0,0.0,99,0.00,,,0.00,Wunderground v.1.15,2013-06-06 10:16:00,
2013-06-06 06:21:00,56.9,56.6,30.01,East,101,0.0,0.0,99,0.00,,,0.00,Wunderground v.1.15,2013-06-06 10:21:00,
2013-06-06 06:26:00,57.0,56.7,30.01,East,101,0.0,0.0,99,0.00,,,0.00,Wunderground v.1.15,2013-06-06 10:26:00,
2013-06-06 06:31:00,57.3,57.0,30.01,East,101,0.0,0.0,99,0.00,,,0.00,Wunderground v.1.15,2013-06-06 10:31:00,
2013-06-06 06:36:00,57.5,57.2,30.01,ESE,108,1.0,1.0,99,0.00,,,0.00,Wunderground v.1.15,2013-06-06 10:36:00,
2013-06-06 06:41:00,57.8,57.5,30.01,ESE,103,1.0,1.0,99,0.00,,,0.00,Wunderground v.1.15,2013-06-06 10:41:00,
2013-06-06 06:46:00,58.0,57.7,30.01,East,96,0.0,4.0,99,0.00,,,0.00,Wunderground v.1.15,2013-06-06 10:46:00,
2013-06-06 06:52:00,58.4,58.1,30.01,East,96,1.0,2.0,99,0.00,,,0.00,Wunderground v.1.15,2013-06-06 10:52:00,
2013-06-06 06:57:00,58.8,58.5,30.01,East,100,0.0,2.0,99,0.00,,,0.00,Wunderground v.1.15,2013-06-06 10:57:00,
2013-06-06 07:02:00,59.0,58.4,30.01,ESE,104,3.0,3.0,98,0.00,,,0.00,Wunderground v.1.15,2013-06-06 11:02:00,
2013-06-06 07:07:00,59.3,58.7,30.01,SW,215,1.0,4.0,98,0.00,,,0.00,Wunderground v.1.15,2013-06-06 11:07:00,
2013-06-06 07:12:00,59.4,58.5,30.01,East,99,2.0,4.0,97,0.00,,,0.00,Wunderground v.1.15,2013-06-06 11:12:00,
2013-06-06 07:17:00,59.5,58.4,30.02,WSW,240,1.0,4.0,96,0.00,,,0.00,Wunderground v.1.15,2013-06-06 11:17:00,
2013-06-06 07:22:00,59.6,58.5,30.02,ESE,105,2.0,3.0,96,0.00,,,0.00,Wunderground v.1.15,2013-06-06 11:22:00,
2013-06-06 07:27:00,59.8,58.4,30.02,ESE,105,1.0,3.0,95,0.00,,,0.00,Wunderground v.1.15,2013-06-06 11:27:00,
2013-06-06 07:32:00,60.1,58.7,30.02,ENE,74,0.0,1.0,95,0.00,,,0.00,Wunderground v.1.15,2013-06-06 11:32:00,
2013-06-06 07:37:00,60.4,58.7,30.02,East,98,0.0,2.0,94,0.00,,,0.00,Wunderground v.1.15,2013-06-06 11:37:00,
2013-06-06 07:42:00,60.5,58.8,30.02,ESE,110,3.0,3.0,94,0.00,,,0.00,Wunderground v.1.15,2013-06-06 11:42:00,
2013-06-06 07:48:00,60.6,58.6,30.02,ESE,115,0.0,3.0,93,0.00,,,0.00,Wunderground v.1.15,2013-06-06 11:48:00,
2013-06-06 07:53:00,60.8,58.8,30.02,ENE,68,1.0,1.0,93,0.00,,,0.00,Wunderground v.1.15,2013-06-06 11:53:00,
2013-06-06 07:58:00,61.0,58.7,30.02,South,176,1.0,3.0,92,0.00,,,0.00,Wunderground v.1.15,2013-06-06 11:58:00,
2013-06-06 08:03:00,61.2,58.6,30.01,ENE,60,1.0,2.0,91,0.00,,,0.00,Wunderground v.1.15,2013-06-06 12:03:00,
2013-06-06 08:08:00,61.4,58.4,30.02,East,93,2.0,5.0,90,0.00,,,0.00,Wunderground v.1.15,2013-06-06 12:08:00,
2013-06-06 08:13:00,61.7,58.4,30.02,SE,132,1.0,2.0,89,0.00,,,0.00,Wunderground v.1.15,2013-06-06 12:13:00,
2013-06-06 08:19:00,61.7,58.4,30.02,ESE,110,0.0,3.0,89,0.00,,,0.00,Wunderground v.1.15,2013-06-06 12:19:00,
2013-06-06 08:24:00,62.1,58.8,30.02,ESE,118,1.0,2.0,89,0.00,,,0.00,Wunderground v.1.15,2013-06-06 12:24:00,
2013-06-06 08:29:00,62.6,59.3,30.01,East,99,1.0,2.0,89,0.00,,,0.00,Wunderground v.1.15,2013-06-06 12:29:00,
2013-06-06 08:34:00,63.2,59.3,30.01,ESE,117,2.0,3.0,87,0.00,,,0.00,Wunderground v.1.15,2013-06-06 12:34:00,
2013-06-06 08:39:00,63.6,58.7,30.01,East,89,2.0,5.0,84,0.00,,,0.00,Wunderground v.1.15,2013-06-06 12:39:00,
2013-06-06 08:44:00,63.7,58.4,30.01,South,184,1.0,5.0,83,0.00,,,0.00,Wunderground v.1.15,2013-06-06 12:44:00,
2013-06-06 08:49:00,63.8,58.5,30.02,SSW,201,1.0,5.0,83,0.00,,,0.00,Wunderground v.1.15,2013-06-06 12:49:00,
2013-06-06 08:54:00,64.2,58.9,30.02,SW,222,1.0,3.0,83,0.00,,,0.00,Wunderground v.1.15,2013-06-06 12:54:00,
2013-06-06 08:59:00,64.9,59.3,30.02,SSE,148,0.0,3.0,82,0.00,,,0.00,Wunderground v.1.15,2013-06-06 12:59:00,
2013-06-06 09:04:00,65.4,59.4,30.01,ESE,106,1.0,2.0,81,0.00,,,0.00,Wunderground v.1.15,2013-06-06 13:04:00,
2013-06-06 09:09:00,65.0,58.3,30.01,NE,37,1.0,5.0,79,0.00,,,0.00,Wunderground v.1.15,2013-06-06 13:09:00,
2013-06-06 09:15:00,65.8,59.1,30.01,ESE,102,1.0,2.0,79,0.00,,,0.00,Wunderground v.1.15,2013-06-06 13:15:00,
2013-06-06 09:20:00,66.5,59.4,30.01,ESE,106,2.0,2.0,78,0.00,,,0.00,Wunderground v.1.15,2013-06-06 13:20:00,
2013-06-06 09:25:00,66.7,58.5,30.01,SE,139,0.0,4.0,75,0.00,,,0.00,Wunderground v.1.15,2013-06-06 13:25:00,
2013-06-06 09:30:00,67.0,58.8,30.01,ESE,102,4.0,5.0,75,0.00,,,0.00,Wunderground v.1.15,2013-06-06 13:30:00,
2013-06-06 09:35:00,66.9,59.5,30.01,SSE,160,1.0,5.0,77,0.00,,,0.00,Wunderground v.1.15,2013-06-06 13:35:00,
2013-06-06 09:40:00,67.7,59.9,30.01,SE,126,2.0,2.0,76,0.00,,,0.00,Wunderground v.1.15,2013-06-06 13:40:00,
2013-06-06 09:45:00,67.7,59.5,30.00,SW,224,1.0,7.0,75,0.00,,,0.00,Wunderground v.1.15,2013-06-06 13:45:00,
2013-06-06 09:50:00,68.1,58.7,30.00,East,100,1.0,3.0,72,0.00,,,0.00,Wunderground v.1.15,2013-06-06 13:50:00,
2013-06-06 09:55:00,68.5,59.1,30.00,South,173,2.0,5.0,72,0.00,,,0.00,Wunderground v.1.15,2013-06-06 13:55:00,
2013-06-06 10:00:00,69.1,59.7,30.00,ESE,117,2.0,3.0,72,0.00,,,0.00,Wunderground v.1.15,2013-06-06 14:00:00,
2013-06-06 10:05:00,69.3,59.5,30.00,SW,225,1.0,3.0,71,0.00,,,0.00,Wunderground v.1.15,2013-06-06 14:05:00,
2013-06-06 10:10:00,69.6,59.0,30.00,SSW,196,3.0,5.0,69,0.00,,,0.00,Wunderground v.1.15,2013-06-06 14:10:00,
2013-06-06 10:15:00,69.7,59.5,30.00,SW,225,2.0,6.0,70,0.00,,,0.00,Wunderground v.1.15,2013-06-06 14:15:00,
2013-06-06 10:20:00,70.0,59.4,30.00,ESE,111,7.0,7.0,69,0.00,,,0.00,Wunderground v.1.15,2013-06-06 14:20:00,
2013-06-06 10:25:00,69.7,60.3,29.99,SW,218,1.0,7.0,72,0.00,,,0.00,Wunderground v.1.15,2013-06-06 14:25:00,
2013-06-06 10:30:00,70.0,59.8,29.99,SSW,194,6.0,7.0,70,0.00,,,0.00,Wunderground v.1.15,2013-06-06 14:30:00,
2013-06-06 10:35:00,69.9,59.7,29.99,SE,125,2.0,7.0,70,0.00,,,0.00,Wunderground v.1.15,2013-06-06 14:35:00,
2013-06-06 10:40:00,70.3,59.6,29.99,SSW,201,1.0,3.0,69,0.00,,,0.00,Wunderground v.1.15,2013-06-06 14:40:00,
2013-06-06 10:45:00,70.3,59.2,29.99,SSW,204,2.0,11.0,68,0.00,,,0.00,Wunderground v.1.15,2013-06-06 14:45:00,
2013-06-06 10:50:00,69.8,59.2,29.99,South,174,5.0,7.0,69,0.00,,,0.00,Wunderground v.1.15,2013-06-06 14:50:00,
2013-06-06 10:55:00,69.8,60.0,29.99,SE,137,3.0,7.0,71,0.00,,,0.00,Wunderground v.1.15,2013-06-06 14:55:00,
2013-06-06 11:00:00,69.3,60.3,29.99,ESE,105,3.0,7.0,73,0.00,,,0.00,Wunderground v.1.15,2013-06-06 15:00:00,
2013-06-06 11:06:00,69.6,61.3,29.99,SE,125,3.0,7.0,75,0.00,,,0.00,Wunderground v.1.15,2013-06-06 15:06:00,
2013-06-06 11:11:00,70.1,60.7,29.99,ESE,103,2.0,4.0,72,0.00,,,0.00,Wunderground v.1.15,2013-06-06 15:11:00,
2013-06-06 11:16:00,70.4,60.9,29.99,East,93,2.0,5.0,72,0.00,,,0.00,Wunderground v.1.15,2013-06-06 15:16:00,
2013-06-06 11:21:00,70.0,59.8,29.99,ESE,121,5.0,6.0,70,0.00,,,0.00,Wunderground v.1.15,2013-06-06 15:21:00,
2013-06-06 11:26:00,69.5,59.7,29.99,SE,137,2.0,9.0,71,0.00,,,0.00,Wunderground v.1.15,2013-06-06 15:26:00,
2013-06-06 11:31:00,69.1,59.3,29.99,ESE,113,6.0,7.0,71,0.00,,,0.00,Wunderground v.1.15,2013-06-06 15:31:00,
2013-06-06 11:37:00,69.0,59.6,29.99,East,101,4.0,7.0,72,0.00,,,0.00,Wunderground v.1.15,2013-06-06 15:37:00,
2013-06-06 11:41:00,69.0,58.4,29.99,East,79,4.0,8.0,69,0.00,,,0.00,Wunderground v.1.15,2013-06-06 15:41:00,
2013-06-06 11:47:00,69.3,58.7,29.98,SE,124,1.0,8.0,69,0.00,,,0.00,Wunderground v.1.15,2013-06-06 15:47:00,
2013-06-06 11:52:00,69.5,56.8,29.99,SE,128,6.0,7.0,64,0.00,,,0.00,Wunderground v.1.15,2013-06-06 15:52:00,
2013-06-06 11:57:00,69.6,56.9,29.99,SSE,148,4.0,9.0,64,0.00,,,0.00,Wunderground v.1.15,2013-06-06 15:57:00,
2013-06-06 12:02:00,69.3,56.6,29.99,ENE,72,2.0,4.0,64,0.00,,,0.00,Wunderground v.1.15,2013-06-06 16:02:00,
2013-06-06 12:07:00,69.6,57.3,29.98,East,101,1.0,8.0,65,0.00,,,0.00,Wunderground v.1.15,2013-06-06 16:07:00,
2013-06-06 12:12:00,69.6,56.4,29.98,ENE,74,3.0,4.0,63,0.00,,,0.00,Wunderground v.1.15,2013-06-06 16:12:00,
2013-06-06 12:17:00,69.4,56.3,29.98,SE,126,4.0,10.0,63,0.00,,,0.00,Wunderground v.1.15,2013-06-06 16:17:00,
2013-06-06 12:22:00,69.1,55.1,29.98,ESE,109,8.0,12.0,61,0.00,,,0.00,Wunderground v.1.15,2013-06-06 16:22:00,
2013-06-06 12:27:00,68.9,55.8,29.98,SE,143,2.0,12.0,63,0.00,,,0.00,Wunderground v.1.15,2013-06-06 16:27:00,
2013-06-06 12:32:00,69.0,55.9,29.97,SSW,205,2.0,13.0,63,0.00,,,0.00,Wunderground v.1.15,2013-06-06 16:32:00,
2013-06-06 12:37:00,69.2,56.1,29.97,SSW,205,11.0,13.0,63,0.00,,,0.00,Wunderground v.1.15,2013-06-06 16:37:00,
2013-06-06 12:42:00,69.4,56.3,29.97,SSW,213,6.0,7.0,63,0.00,,,0.00,Wunderground v.1.15,2013-06-06 16:42:00,
2013-06-06 12:48:00,69.6,56.4,29.97,East,101,3.0,10.0,63,0.00,,,0.00,Wunderground v.1.15,2013-06-06 16:48:00,
2013-06-06 12:53:00,69.7,57.4,29.97,SSW,205,2.0,9.0,65,0.00,,,0.00,Wunderground v.1.15,2013-06-06 16:53:00,
2013-06-06 12:58:00,70.0,59.0,29.98,South,191,9.0,9.0,68,0.00,,,0.00,Wunderground v.1.15,2013-06-06 16:58:00,
2013-06-06 13:03:00,70.0,59.4,29.98,SSE,158,1.0,7.0,69,0.00,,,0.00,Wunderground v.1.15,2013-06-06 17:03:00,
2013-06-06 13:08:00,69.6,57.7,29.98,ESE,105,3.0,9.0,66,0.00,,,0.00,Wunderground v.1.15,2013-06-06 17:08:00,
2013-06-06 13:13:00,69.7,58.7,29.98,SSE,153,6.0,6.0,68,0.00,,,0.00,Wunderground v.1.15,2013-06-06 17:13:00,
2013-06-06 13:18:00,69.4,58.0,29.98,SW,214,5.0,8.0,67,0.00,,,0.00,Wunderground v.1.15,2013-06-06 17:18:00,
2013-06-06 13:23:00,69.4,58.4,29.98,ENE,65,3.0,6.0,68,0.00,,,0.00,Wunderground v.1.15,2013-06-06 17:23:00,
2013-06-06 13:28:00,69.7,58.3,29.98,SSW,198,4.0,8.0,67,0.00,,,0.00,Wunderground v.1.15,2013-06-06 17:28:00,
2013-06-06 13:33:00,69.6,58.6,29.97,ESE,109,5.0,10.0,68,0.00,,,0.00,Wunderground v.1.15,2013-06-06 17:33:00,
2013-06-06 13:38:00,69.5,58.9,29.97,SE,146,3.0,13.0,69,0.00,,,0.00,Wunderground v.1.15,2013-06-06 17:38:00,
2013-06-06 13:44:00,69.9,59.7,29.97,ESE,110,2.0,9.0,70,0.00,,,0.00,Wunderground v.1.15,2013-06-06 17:44:00,
2013-06-06 13:49:00,70.2,59.6,29.97,East,86,2.0,10.0,69,0.00,,,0.00,Wunderground v.1.15,2013-06-06 17:49:00,
2013-06-06 13:54:00,70.4,60.1,29.96,South,188,4.0,7.0,70,0.00,,,0.00,Wunderground v.1.15,2013-06-06 17:54:00,
2013-06-06 13:59:00,70.1,59.5,29.96,South,176,2.0,12.0,69,0.00,,,0.00,Wunderground v.1.15,2013-06-06 17:59:00,
2013-06-06 14:04:00,69.7,60.3,29.96,ENE,72,3.0,12.0,72,0.00,,,0.00,Wunderground v.1.15,2013-06-06 18:04:00,
2013-06-06 14:09:00,69.6,60.6,29.97,South,190,6.0,12.0,73,0.00,,,0.00,Wunderground v.1.15,2013-06-06 18:09:00,
2013-06-06 14:14:00,70.1,60.7,29.96,ENE,63,3.0,7.0,72,0.00,,,0.00,Wunderground v.1.15,2013-06-06 18:14:00,
2013-06-06 14:19:00,70.4,60.5,29.96,WNW,285,4.0,10.0,71,0.00,,,0.00,Wunderground v.1.15,2013-06-06 18:19:00,
2013-06-06 14:24:00,69.8,60.4,29.96,ESE,120,6.0,11.0,72,0.00,,,0.00,Wunderground v.1.15,2013-06-06 18:24:00,
2013-06-06 14:29:00,69.0,60.0,29.95,ENE,58,2.0,11.0,73,0.00,,,0.00,Wunderground v.1.15,2013-06-06 18:29:00,
2013-06-06 14:34:00,68.7,60.1,29.95,SSE,157,4.0,7.0,74,0.00,,,0.00,Wunderground v.1.15,2013-06-06 18:34:00,
2013-06-06 14:40:00,68.3,59.7,29.95,East,98,6.0,11.0,74,0.00,,,0.00,Wunderground v.1.15,2013-06-06 18:40:00,
2013-06-06 14:45:00,68.3,60.1,29.95,NE,49,5.0,5.0,75,0.00,,,0.00,Wunderground v.1.15,2013-06-06 18:45:00,
2013-06-06 14:50:00,68.2,60.0,29.95,SSE,159,2.0,7.0,75,0.00,,,0.00,Wunderground v.1.15,2013-06-06 18:50:00,
2013-06-06 14:55:00,67.7,59.9,29.95,SSW,194,4.0,10.0,76,0.00,,,0.00,Wunderground v.1.15,2013-06-06 18:55:00,
2013-06-06 15:00:00,67.5,60.0,29.95,ESE,115,5.0,10.0,77,0.00,,,0.00,Wunderground v.1.15,2013-06-06 19:00:00,
2013-06-06 15:05:00,67.3,60.2,29.95,WSW,238,3.0,7.0,78,0.00,,,0.00,Wunderground v.1.15,2013-06-06 19:05:00,
2013-06-06 15:10:00,67.2,60.1,29.95,ESE,105,1.0,8.0,78,0.00,,,0.00,Wunderground v.1.15,2013-06-06 19:10:00,
2013-06-06 15:15:00,66.9,59.8,29.96,ENE,65,4.0,11.0,78,0.00,,,0.00,Wunderground v.1.15,2013-06-06 19:15:00,
2013-06-06 15:20:00,66.6,59.9,29.95,East,96,1.0,11.0,79,0.00,,,0.00,Wunderground v.1.15,2013-06-06 19:20:00,
2013-06-06 15:26:00,66.8,60.1,29.95,SW,221,5.0,6.0,79,0.00,,,0.00,Wunderground v.1.15,2013-06-06 19:26:00,
2013-06-06 15:31:00,66.7,60.3,29.95,SSE,149,1.0,3.0,80,0.00,,,0.00,Wunderground v.1.15,2013-06-06 19:31:00,
2013-06-06 15:34:00,66.5,60.1,29.95,East,98,2.0,8.0,80,0.00,,,0.00,Wunderground v.1.15,2013-06-06 19:34:00,
2013-06-06 15:39:00,66.3,59.9,29.95,East,97,6.0,8.0,80,0.00,,,0.00,Wunderground v.1.15,2013-06-06 19:39:00,
2013-06-06 15:44:00,66.1,60.1,29.95,ESE,105,4.0,7.0,81,0.00,,,0.00,Wunderground v.1.15,2013-06-06 19:44:00,
2013-06-06 15:49:00,66.0,60.3,29.95,SE,139,3.0,7.0,82,0.00,,,0.00,Wunderground v.1.15,2013-06-06 19:49:00,
2013-06-06 15:54:00,66.0,60.3,29.94,East,98,1.0,4.0,82,0.00,,,0.00,Wunderground v.1.15,2013-06-06 19:54:00,
2013-06-06 16:00:00,66.1,60.4,29.94,ENE,75,4.0,7.0,82,0.00,,,0.00,Wunderground v.1.15,2013-06-06 20:00:00,
2013-06-06 16:05:00,65.9,60.2,29.94,East,101,2.0,12.0,82,0.00,,,0.00,Wunderground v.1.15,2013-06-06 20:05:00,
2013-06-06 16:10:00,65.7,60.1,29.94,SE,145,2.0,12.0,82,0.00,,,0.00,Wunderground v.1.15,2013-06-06 20:10:00,
2013-06-06 16:15:00,65.5,60.2,29.94,West,276,3.0,8.0,83,0.00,,,0.00,Wunderground v.1.15,2013-06-06 20:15:00,
2013-06-06 16:20:00,65.5,60.2,29.94,SE,144,1.0,8.0,83,0.00,,,0.00,Wunderground v.1.15,2013-06-06 20:20:00,
2013-06-06 16:25:00,65.3,60.3,29.94,East,86,3.0,9.0,84,0.00,,,0.00,Wunderground v.1.15,2013-06-06 20:25:00,
2013-06-06 16:30:00,65.1,60.1,29.94,East,92,4.0,9.0,84,0.00,,,0.00,Wunderground v.1.15,2013-06-06 20:30:00,
2013-06-06 16:35:00,65.1,60.5,29.94,ESE,110,5.0,8.0,85,0.00,,,0.00,Wunderground v.1.15,2013-06-06 20:35:00,
2013-06-06 16:40:00,65.1,60.5,29.94,SE,144,1.0,8.0,85,0.00,,,0.00,Wunderground v.1.15,2013-06-06 20:40:00,
2013-06-06 16:45:00,65.0,60.4,29.94,East,94,4.0,10.0,85,0.00,,,0.00,Wunderground v.1.15,2013-06-06 20:45:00,
2013-06-06 16:50:00,64.9,60.3,29.94,ESE,110,2.0,10.0,85,0.00,,,0.00,Wunderground v.1.15,2013-06-06 20:50:00,
2013-06-06 16:55:00,65.0,60.4,29.94,SSE,157,3.0,9.0,85,0.00,,,0.00,Wunderground v.1.15,2013-06-06 20:55:00,
2013-06-06 17:00:00,65.0,60.4,29.94,East,96,8.0,9.0,85,0.00,,,0.00,Wunderground v.1.15,2013-06-06 21:00:00,
2013-06-06 17:05:00,64.9,60.3,29.93,ESE,108,2.0,7.0,85,0.00,,,0.00,Wunderground v.1.15,2013-06-06 21:05:00,
2013-06-06 17:10:00,64.7,60.4,29.93,East,89,8.0,9.0,86,0.00,,,0.00,Wunderground v.1.15,2013-06-06 21:10:00,
2013-06-06 17:15:00,64.6,60.3,29.93,ESE,115,2.0,10.0,86,0.00,,,0.00,Wunderground v.1.15,2013-06-06 21:15:00,
2013-06-06 17:20:00,64.5,60.2,29.93,ESE,109,2.0,10.0,86,0.00,,,0.00,Wunderground v.1.15,2013-06-06 21:20:00,
2013-06-06 17:26:00,64.4,60.4,29.92,East,91,7.0,8.0,87,0.00,,,0.00,Wunderground v.1.15,2013-06-06 21:26:00,
2013-06-06 17:31:00,64.2,60.2,29.92,ESE,114,2.0,4.0,87,0.00,,,0.00,Wunderground v.1.15,2013-06-06 21:31:00,
2013-06-06 17:37:00,64.3,60.7,29.92,East,101,4.0,6.0,88,0.00,,,0.00,Wunderground v.1.15,2013-06-06 21:37:00,
2013-06-06 17:42:00,64.3,60.3,29.92,South,169,1.0,4.0,87,0.00,,,0.00,Wunderground v.1.15,2013-06-06 21:42:00,
2013-06-06 17:47:00,64.4,60.8,29.92,ENE,70,2.0,5.0,88,0.00,,,0.00,Wunderground v.1.15,2013-06-06 21:47:00,
2013-06-06 17:52:00,64.3,60.7,29.92,ESE,117,6.0,7.0,88,0.00,,,0.00,Wunderground v.1.15,2013-06-06 21:52:00,
2013-06-06 17:57:00,64.0,60.4,29.92,WSW,252,4.0,9.0,88,0.00,,,0.00,Wunderground v.1.15,2013-06-06 21:57:00,
2013-06-06 18:02:00,63.9,60.6,29.92,ESE,113,4.0,4.0,89,0.00,,,0.00,Wunderground v.1.15,2013-06-06 22:02:00,
2013-06-06 18:07:00,63.8,60.8,29.92,ESE,107,1.0,7.0,90,0.00,,,0.00,Wunderground v.1.15,2013-06-06 22:07:00,
2013-06-06 18:12:00,63.7,60.7,29.92,ESE,115,3.0,4.0,90,0.00,,,0.00,Wunderground v.1.15,2013-06-06 22:12:00,
2013-06-06 18:17:00,63.5,60.5,29.92,SSW,192,1.0,4.0,90,0.00,,,0.00,Wunderground v.1.15,2013-06-06 22:17:00,
2013-06-06 18:22:00,63.5,60.5,29.92,East,97,2.0,5.0,90,0.00,,,0.00,Wunderground v.1.15,2013-06-06 22:22:00,
2013-06-06 18:27:00,63.3,60.6,29.92,SE,146,1.0,7.0,91,0.00,,,0.00,Wunderground v.1.15,2013-06-06 22:27:00,
2013-06-06 18:32:00,63.2,60.5,29.92,SW,225,1.0,3.0,91,0.00,,,0.00,Wunderground v.1.15,2013-06-06 22:32:00,
2013-06-06 18:37:00,63.0,60.6,29.92,SSW,203,2.0,7.0,92,0.00,,,0.00,Wunderground v.1.15,2013-06-06 22:37:00,
2013-06-06 18:42:00,63.0,60.6,29.92,ESE,105,4.0,7.0,92,0.00,,,0.00,Wunderground v.1.15,2013-06-06 22:42:00,
2013-06-06 18:47:00,62.9,60.5,29.92,East,84,1.0,7.0,92,0.00,,,0.00,Wunderground v.1.15,2013-06-06 22:47:00,
2013-06-06 18:53:00,62.7,60.3,29.92,ESE,113,5.0,7.0,92,0.00,,,0.00,Wunderground v.1.15,2013-06-06 22:53:00,
2013-06-06 18:58:00,62.5,60.4,29.92,SSE,155,2.0,8.0,93,0.00,,,0.00,Wunderground v.1.15,2013-06-06 22:58:00,
2013-06-06 19:03:00,62.4,60.3,29.92,ESE,117,2.0,5.0,93,0.00,,,0.00,Wunderground v.1.15,2013-06-06 23:03:00,
2013-06-06 19:08:00,62.4,60.3,29.92,East,82,1.0,5.0,93,0.00,,,0.00,Wunderground v.1.15,2013-06-06 23:08:00,
2013-06-06 19:13:00,62.3,60.6,29.92,SE,142,6.0,6.0,94,0.00,,,0.00,Wunderground v.1.15,2013-06-06 23:13:00,
2013-06-06 19:18:00,62.3,60.6,29.92,SE,144,2.0,7.0,94,0.00,,,0.00,Wunderground v.1.15,2013-06-06 23:18:00,
2013-06-06 19:23:00,62.2,60.5,29.92,ESE,121,3.0,3.0,94,0.00,,,0.00,Wunderground v.1.15,2013-06-06 23:23:00,
2013-06-06 19:28:00,62.2,60.5,29.92,SE,124,3.0,10.0,94,0.00,,,0.00,Wunderground v.1.15,2013-06-06 23:28:00,
2013-06-06 19:34:00,62.2,60.5,29.92,NNE,30,3.0,4.0,94,0.00,,,0.00,Wunderground v.1.15,2013-06-06 23:34:00,
2013-06-06 19:39:00,62.2,60.5,29.92,South,180,4.0,9.0,94,0.00,,,0.00,Wunderground v.1.15,2013-06-06 23:39:00,
2013-06-06 19:44:00,62.3,60.6,29.93,South,170,0.0,6.0,94,0.00,,,0.00,Wunderground v.1.15,2013-06-06 23:44:00,
2013-06-06 19:49:00,62.2,60.5,29.93,SSE,149,3.0,9.0,94,0.00,,,0.01,Wunderground v.1.15,2013-06-06 23:49:00,
2013-06-06 19:54:00,62.1,60.4,29.93,SW,221,1.0,7.0,94,0.00,,,0.01,Wunderground v.1.15,2013-06-06 23:54:00,
2013-06-06 19:59:00,62.0,60.3,29.92,ESE,103,3.0,7.0,94,0.00,,,0.01,Wunderground v.1.15,2013-06-06 23:59:00,
2013-06-06 20:05:00,61.9,60.5,29.92,East,101,3.0,5.0,95,0.00,,,0.01,Wunderground v.1.15,2013-06-07 00:05:00,
2013-06-06 20:10:00,61.8,60.4,29.92,East,90,0.0,2.0,95,0.00,,,0.02,Wunderground v.1.15,2013-06-07 00:10:00,
2013-06-06 20:15:00,61.8,60.4,29.92,ESE,102,1.0,4.0,95,0.00,,,0.02,Wunderground v.1.15,2013-06-07 00:15:00,
2013-06-06 20:20:00,61.7,60.5,29.92,ESE,107,1.0,2.0,96,0.00,,,0.02,Wunderground v.1.15,2013-06-07 00:20:00,
2013-06-06 20:25:00,61.7,60.5,29.92,ESE,112,0.0,5.0,96,0.00,,,0.02,Wunderground v.1.15,2013-06-07 00:25:00,
2013-06-06 20:30:00,61.7,60.5,29.91,SE,134,2.0,2.0,96,0.00,,,0.02,Wunderground v.1.15,2013-06-07 00:30:00,
2013-06-06 20:35:00,61.6,60.4,29.91,East,88,1.0,6.0,96,0.00,,,0.02,Wunderground v.1.15,2013-06-07 00:35:00,
2013-06-06 20:40:00,61.6,60.4,29.91,South,176,0.0,1.0,96,0.00,,,0.03,Wunderground v.1.15,2013-06-07 00:40:00,
2013-06-06 20:45:00,61.6,60.4,29.91,East,88,5.0,5.0,96,0.00,,,0.03,Wunderground v.1.15,2013-06-07 00:45:00,
2013-06-06 20:50:00,61.6,60.4,29.91,SW,224,1.0,2.0,96,0.00,,,0.03,Wunderground v.1.15,2013-06-07 00:50:00,
2013-06-06 20:55:00,61.5,60.3,29.91,WSW,242,4.0,5.0,96,0.00,,,0.03,Wunderground v.1.15,2013-06-07 00:55:00,
2013-06-06 21:00:00,61.5,60.3,29.91,East,89,0.0,2.0,96,0.00,,,0.04,Wunderground v.1.15,2013-06-07 01:00:00,
2013-06-06 21:05:00,61.5,60.6,29.91,ESE,116,3.0,6.0,97,0.00,,,0.04,Wunderground v.1.15,2013-06-07 01:05:00,
2013-06-06 21:10:00,61.4,60.5,29.91,ESE,110,2.0,2.0,97,0.00,,,0.04,Wunderground v.1.15,2013-06-07 01:10:00,
2013-06-06 21:15:00,61.4,60.5,29.92,SSE,147,1.0,6.0,97,0.04,,,0.05,Wunderground v.1.15,2013-06-07 01:15:00,
2013-06-06 21:20:00,61.4,60.5,29.92,South,169,1.0,2.0,97,0.04,,,0.05,Wunderground v.1.15,2013-06-07 01:20:00,
2013-06-06 21:25:00,61.4,60.5,29.92,East,97,0.0,4.0,97,0.05,,,0.06,Wunderground v.1.15,2013-06-07 01:25:00,
2013-06-06 21:31:00,61.4,60.5,29.92,ESE,110,1.0,2.0,97,0.05,,,0.06,Wunderground v.1.15,2013-06-07 01:31:00,
2013-06-06 21:36:00,61.4,60.5,29.92,SW,217,0.0,4.0,97,0.05,,,0.06,Wunderground v.1.15,2013-06-07 01:36:00,
2013-06-06 21:42:00,61.4,60.5,29.92,SSE,149,1.0,2.0,97,0.05,,,0.07,Wunderground v.1.15,2013-06-07 01:42:00,
2013-06-06 21:47:00,61.3,60.4,29.92,SSW,210,1.0,7.0,97,0.05,,,0.07,Wunderground v.1.15,2013-06-07 01:47:00,
2013-06-06 21:52:00,61.3,60.4,29.92,ESE,107,1.0,5.0,97,0.05,,,0.08,Wunderground v.1.15,2013-06-07 01:52:00,
2013-06-06 21:57:00,61.3,60.4,29.92,ESE,122,3.0,5.0,97,0.05,,,0.08,Wunderground v.1.15,2013-06-07 01:57:00,
2013-06-06 22:02:00,61.3,60.4,29.92,SW,229,1.0,3.0,97,0.05,,,0.09,Wunderground v.1.15,2013-06-07 02:02:00,
2013-06-06 22:07:00,61.3,60.4,29.92,East,88,1.0,4.0,97,0.05,,,0.09,Wunderground v.1.15,2013-06-07 02:07:00,
2013-06-06 22:12:00,61.3,60.7,29.92,SSE,167,2.0,3.0,98,0.05,,,0.09,Wunderground v.1.15,2013-06-07 02:12:00,
2013-06-06 22:17:00,61.3,60.7,29.91,East,89,1.0,3.0,98,0.04,,,0.09,Wunderground v.1.15,2013-06-07 02:17:00,
2013-06-06 22:22:00,61.3,60.7,29.91,ENE,70,1.0,1.0,98,0.00,,,0.10,Wunderground v.1.15,2013-06-07 02:22:00,
2013-06-06 22:27:00,61.2,60.6,29.91,ENE,63,1.0,5.0,98,0.00,,,0.10,Wunderground v.1.15,2013-06-07 02:27:00,
2013-06-06 22:32:00,61.2,60.6,29.91,East,98,1.0,2.0,98,0.07,,,0.11,Wunderground v.1.15,2013-06-07 02:32:00,
2013-06-06 22:37:00,61.2,60.6,29.91,ESE,103,2.0,5.0,98,0.09,,,0.12,Wunderground v.1.15,2013-06-07 02:37:00,
2013-06-06 22:42:00,61.2,60.6,29.90,ESE,120,1.0,3.0,98,0.10,,,0.13,Wunderground v.1.15,2013-06-07 02:42:00,
2013-06-06 22:47:00,61.1,60.5,29.90,ENE,62,3.0,5.0,98,0.12,,,0.14,Wunderground v.1.15,2013-06-07 02:47:00,
2013-06-06 22:52:00,61.1,60.5,29.90,SE,127,1.0,3.0,98,0.09,,,0.14,Wunderground v.1.15,2013-06-07 02:52:00,
2013-06-06 22:57:00,61.0,60.4,29.90,SE,127,1.0,5.0,98,0.07,,,0.15,Wunderground v.1.15,2013-06-07 02:57:00,
2013-06-06 23:02:00,61.0,60.4,29.89,ESE,117,1.0,4.0,98,0.07,,,0.15,Wunderground v.1.15,2013-06-07 03:02:00,
2013-06-06 23:07:00,60.9,60.3,29.89,ESE,110,0.0,7.0,98,0.04,,,0.15,Wunderground v.1.15,2013-06-07 03:07:00,
2013-06-06 23:12:00,60.9,60.3,29.89,ESE,102,1.0,3.0,98,0.04,,,0.16,Wunderground v.1.15,2013-06-07 03:12:00,
2013-06-06 23:17:00,60.9,60.3,29.89,East,86,4.0,5.0,98,0.04,,,0.16,Wunderground v.1.15,2013-06-07 03:17:00,
2013-06-06 23:22:00,60.9,60.3,29.89,ESE,120,2.0,5.0,98,0.04,,,0.16,Wunderground v.1.15,2013-06-07 03:22:00,
2013-06-06 23:27:00,60.9,60.3,29.89,SSE,156,1.0,7.0,98,0.00,,,0.16,Wunderground v.1.15,2013-06-07 03:27:00,
2013-06-06 23:32:00,60.8,60.2,29.89,East,99,3.0,4.0,98,0.00,,,0.17,Wunderground v.1.15,2013-06-07 03:32:00,
2013-06-06 23:37:00,60.8,60.2,29.89,ESE,122,1.0,5.0,98,0.00,,,0.17,Wunderground v.1.15,2013-06-07 03:37:00,
2013-06-06 23:42:00,60.7,60.1,29.89,SSE,158,0.0,4.0,98,0.00,,,0.17,Wunderground v.1.15,2013-06-07 03:42:00,
2013-06-06 23:47:00,60.7,60.1,29.89,East,84,1.0,4.0,98,0.00,,,0.17,Wunderground v.1.15,2013-06-07 03:47:00,
2013-06-06 23:52:00,60.7,60.1,29.89,SE,129,1.0,4.0,98,0.00,,,0.18,Wunderground v.1.15,2013-06-07 03:52:00,
2013-06-06 23:57:00,60.7,60.1,29.89,SSW,203,0.0,4.0,98,0.00,,,0.18,Wunderground v.1.15,2013-06-07 03:57:00,